Vertical_Velocity
-2 -0 -1 -1 -0 -0 0 -0 0 0 -1 0 -1 0 -1 -0 -0 -1 -1 -0 -1 -2 -2 -2 -1 -3 -1 -1 -1 -1 -2 -2 -1 -1 -1 -1 -2 -2
-2 0 1 -2 -3 -1 0 1 -2 -0 -1 1 0 -1 -1 0 1 1 -1 -1 -1 -3 -2 -4 -4 -2 -3 -2 -1 -2 -2 -3 -3 -3 -2 -2 -2 -2
-0 -0 2 1 -2 -0 -1 -0 2 -1 -1 -0 1 -0 -0 -1 -0 0 -0 -3 -0 -1 -2 -3 -2 -2 -0 -2 -2 -2 -2 -2 -3 -3 -2 -2 -2 -1
-4 2 3 -1 -2 1 0 -1 1 -1 0 -2 -1 1 -1 -0 -0 -0 0 -3 -1 -1 1 -2 -0 -2 -1 -1 -1 -1 -1 -0 -1 -0 -1 -1 -1 -1
7 -0 4 -1 -1 -2 -2 0 1 1 0 -0 -2 1 -3 -1 -2 0 2 -2 -1 -2 -0 -1 -1 -2 -2 -1 -1 -1 -3 -3 -1 -2 -2 -1 -1 -2
-2 5 9 1 1 -0 -3 -1 0 -0 -2 -2 -0 0 -2 -0 -1 -2 0 -0 0 1 1 -3 -1 -2 -2 -0 -2 -1 -2 -1 -4 -3 -2 -2 -0 -1
-1 3 6 9 1 2 -0 1 -2 -1 -1 -1 1 -2 0 1 -1 -0 -1 -2 -2 -1 0 0 -0 -0 -1 -1 -2 -2 -3 -2 -2 -3 -3 -3 -3 -2
3 -4 5 2 9 1 -1 1 2 -1 0 -1 1 -1 -1 2 0 0 0 -0 -3 -4 0 0 -1 -1 -2 -1 -2 -1 -2 -3 -3 -3 -2 -2 -2 -3
2 3 1 3 7 6 8 8 9 4 2 -3 1 -3 -2 -2 4 -0 -1 -1 -1 -2 -2 -3 -3 -3 -1 -1 -2 -3 -1 -2 -2 -3 -2 -2 -1 -2
0 -1 6 10 0 5 4 6 2 1 2 3 3 -2 -0 2 -2 1 -0 1 -1 -2 -1 -2 -0 -4 -3 -1 -1 -0 -2 -1 -2 -2 -1 -1 -1 -1
-0 -1 5 1 1 -1 3 3 4 2 1 3 2 1 2 -1 1 0 -0 -0 -2 1 -3 -1 0 -3 -1 0 -2 -1 -3 -2 -1 -3 -1 -1 -1 -1
3 4 3 -0 -1 1 1 3 1 4 2 -2 1 -1 0 4 0 -3 -1 -1 -2 -1 1 -1 -4 -2 -1 0 -1 -1 -3 -3 -2 -2 -0 -0 -3 -3
1 -0 2 1 2 2 2 3 4 4 -1 -4 2 -0 2 0 -2 -2 0 -2 0 -3 2 -3 -2 -0 -1 -0 -1 -5 -3 -3 -3 -5 -3 -4 -4 -6
0 2 1 1 3 4 4 5 6 2 -4 -3 -5 -1 3 -2 -2 -2 -1 -1 -1 -3 -0 -5 1 -3 -2 -1 3 -1 -0 -2 -1 -2 1 1 -2 -1
3 2 -1 1 2 3 3 1 -2 2 -1 -5 -1 2 1 -0 0 1 -2 -2 -1 -1 -4 -3 -3 0 -2 -1 -0 1 -4 2 -0 -2 0 1 0 -2
-2 3 6 4 4 2 -1 1 -1 -5 -3 -0 -1 -0 -1 -2 -2 1 2 -1 -1 -3 -1 -3 -1 -1 2 -1 -0 3 -6 -4 3 -3 -4 -0 -1 -4
4 5 5 -1 -0 1 -1 -3 -3 0 1 -2 2 0 -3 -1 -1 -1 -1 1 0 -2 -2 -2 -1 -2 -1 0 0 -4 -0 1 -4 -0 -4 -1 1 -5
3 2 6 2 -5 -5 -5 -5 -0 -1 -1 -0 0 1 -0 -0 -1 1 0 -2 -0 -1 2 -2 -3 -4 -3 2 -5 1 -4 -3 -1 -3 -4 -6 4 4
7 -1 1 -5 -6 -3 -0 2 1 0 -3 0 1 2 -1 1 -0 2 -1 0 1 -1 1 -3 -4 -5 -4 -1 2 6 -1 0 -2 0 -2 -3 -5 3
-4 -3 -3 0 1 5 -5 -4 -1 1 2 -1 -2 -1 -1 2 2 3 1 0 -3 -1 1 -0 -2 -5 -7 -3 -4 14 -4 -7 -4 -2 0 -3 -3 -1
-2 -2 -2 1 -1 2 -0 2 -4 -2 0 0 3 -1 1 -1 2 0 -1 -0 -3 -2 -1 0 -4 -4 -2 -4 -3 4 10 -1 -7 -6 0 -5 -3 0
-5 -1 -0 1 4 2 1 2 1 -3 1 2 1 -1 1 -1 -1 -0 -1 -2 -1 -4 -4 1 2 2 -2 -5 1 -1 2 7 6 -3 -2 -7 -11 -15
-6 -3 -3 2 6 -5 3 3 1 -1 -1 0 -1 -1 2 -1 1 -1 -1 -2 -0 -2 1 2 -1 -1 1 -5 -6 -1 1 3 -0 2 11 -3 -4 -6
Height
3172 3174 3176 3177 3178 3179 3181 3181 3182 3183 3183 3184 3184 3184 3184 3183 3183 3183 3182 3181 3180 3179 3177 3176 3174 3172 3170 3168 3166 3164 3162 3160 3157 3155 3153 3152 3149 3147
3166 3168 3170 3171 3172 3173 3175 3176 3177 3177 3178 3178 3178 3178 3178 3177 3177 3176 3176 3176 3175 3173 3172 3171 3168 3167 3165 3163 3160 3158 3156 3154 3152 3150 3148 3146 3143 3141
3159 3162 3164 3165 3166 3167 3168 3169 3170 3171 3171 3172 3172 3172 3172 3171 3171 3170 3170 3169 3168 3167 3166 3164 3162 3160 3158 3156 3154 3152 3150 3148 3146 3144 3141 3139 3137 3134
3151 3154 3156 3158 3160 3161 3161 3162 3163 3164 3165 3165 3164 3165 3165 3165 3165 3164 3163 3162 3161 3159 3158 3157 3155 3153 3152 3149 3147 3145 3143 3141 3139 3137 3134 3132 3130 3127
3141 3145 3147 3150 3151 3153 3154 3155 3157 3157 3157 3158 3158 3158 3159 3159 3158 3157 3156 3155 3154 3152 3151 3149 3148 3147 3145 3143 3141 3139 3137 3135 3133 3130 3127 3125 3123 3120
3132 3135 3138 3141 3142 3144 3146 3147 3149 3151 3151 3151 3151 3151 3151 3151 3150 3150 3148 3147 3146 3145 3144 3143 3141 3140 3138 3136 3134 3132 3130 3128 3125 3122 3120 3117 3116 3114
3123 3125 3127 3129 3132 3134 3136 3139 3140 3142 3143 3144 3144 3144 3144 3143 3143 3142 3141 3140 3139 3138 3137 3136 3135 3133 3132 3129 3127 3125 3123 3121 3118 3115 3112 3110 3108 3106
3113 3116 3117 3119 3122 3123 3125 3128 3130 3132 3134 3136 3136 3137 3137 3135 3135 3135 3135 3134 3133 3132 3131 3130 3128 3126 3125 3122 3120 3118 3116 3113 3110 3108 3105 3103 3101 3098
3104 3106 3107 3110 3113 3114 3116 3118 3119 3122 3124 3126 3127 3128 3129 3129 3128 3128 3128 3127 3126 3125 3125 3123 3121 3119 3117 3115 3112 3111 3108 3105 3103 3101 3099 3097 3094 3091
3095 3097 3099 3101 3103 3104 3105 3107 3109 3112 3114 3116 3117 3119 3119 3120 3121 3121 3121 3120 3119 3118 3117 3115 3114 3111 3108 3107 3105 3103 3100 3098 3095 3093 3091 3089 3086 3084
3084 3086 3087 3090 3091 3093 3095 3097 3099 3101 3103 3105 3108 3110 3111 3112 3112 3113 3113 3112 3111 3110 3110 3107 3106 3104 3102 3100 3098 3096 3093 3091 3088 3087 3084 3081 3078 3076
3072 3075 3077 3079 3081 3083 3086 3088 3090 3091 3093 3096 3100 3103 3104 3104 3105 3106 3106 3105 3104 3102 3102 3100 3098 3096 3095 3093 3091 3088 3086 3083 3082 3079 3076 3073 3071 3068
3063 3065 3067 3069 3071 3074 3077 3080 3082 3084 3086 3090 3094 3096 3097 3098 3098 3098 3098 3097 3096 3093 3094 3091 3091 3088 3087 3085 3084 3082 3079 3076 3073 3071 3068 3065 3063 3059
3055 3057 3059 3062 3065 3067 3069 3071 3073 3075 3079 3083 3086 3089 3090 3091 3091 3090 3089 3089 3088 3086 3085 3083 3082 3081 3079 3078 3077 3075 3072 3069 3066 3063 3061 3058 3055 3051
3047 3050 3053 3056 3059 3062 3064 3067 3070 3072 3074 3077 3080 3082 3082 3082 3082 3082 3081 3081 3079 3077 3076 3075 3074 3073 3071 3069 3068 3067 3063 3062 3058 3055 3052 3050 3047 3043
3042 3044 3047 3051 3055 3057 3059 3062 3064 3066 3068 3071 3073 3073 3073 3074 3074 3073 3071 3070 3070 3069 3068 3067 3066 3064 3063 3061 3058 3057 3055 3052 3050 3047 3043 3040 3037 3033
3039 3042 3044 3047 3049 3052 3054 3056 3058 3060 3063 3064 3064 3065 3066 3066 3064 3063 3062 3061 3062 3061 3060 3058 3056 3055 3053 3051 3050 3048 3046 3043 3039 3036 3033 3029 3027 3023
3034 3038 3041 3043 3046 3047 3048 3050 3052 3053 3055 3055 3056 3056 3056 3056 3055 3054 3053 3053 3053 3052 3052 3050 3048 3045 3042 3042 3040 3038 3036 3032 3029 3026 3021 3016 3014 3013
3028 3032 3035 3036 3038 3039 3040 3042 3044 3046 3045 3046 3046 3046 3046 3046 3045 3045 3045 3045 3045 3043 3042 3041 3039 3036 3033 3031 3029 3030 3025 3021 3017 3014 3010 3006 3002 2999
3023 3026 3028 3030 3032 3031 3031 3033 3034 3035 3035 3037 3037 3037 3037 3037 3036 3037 3036 3035 3035 3034 3033 3032 3030 3026 3023 3020 3017 3018 3015 3010 3006 3002 2999 2995 2992 2987
3018 3020 3021 3022 3023 3022 3023 3022 3024 3026 3026 3025 3026 3028 3028 3028 3027 3027 3027 3026 3025 3025 3023 3022 3020 3016 3011 3008 3005 3004 3003 3000 2995 2989 2985 2982 2978 2973
3008 3012 3013 3013 3013 3013 3013 3013 3012 3014 3015 3016 3018 3019 3019 3018 3018 3018 3017 3016 3015 3013 3011 3009 3008 3005 3000 2995 2993 2990 2987 2986 2985 2981 2975 2971 2964 2958
3000 3000 3001 3003 3003 3004 3004 3003 3003 3005 3007 3008 3009 3009 3009 3008 3008 3007 3006 3005 3004 3002 3000 2997 2993 2990 2987 2984 2980 2976 2972 2971 2969 2966 2965 2962 2956 2950